(475051) = 2005 UU97

Discovered at Kitt Peak on 2005-10-22 by Spacewatch.

Orbit

Orbit type: Main Belt

Note: WebGL enabled browser required.

epoch2022-01-21.0
epoch JD2459600.5
perihelion date2021-01-07.96649
perihelion JD2459222.46649
argument of perihelion (°)220.20769
ascending node (°)159.31444
inclination (°)2.86960
eccentricity0.1647360
perihelion distance (AU)2.0506115
Tisserand w.r.t. Jupiter3.5
ΔV w.r.t. Earth (km/sec)9.0
semimajor axis (AU)2.4550459
mean anomaly (°)96.86006
mean daily motion (°/day)0.25622080
aphelion distance (AU)2.859
period (years)3.85
P-vector [x]0.94222656
P-vector [y]0.31875664
P-vector [z]0.10297243
Q-vector [x]-0.33450917
Q-vector [y]0.87912481
Q-vector [z]0.33947486
absolute magnitude18.19
phase slope0.15
uncertainty0
referenceMPO 700453
observations used139
oppositions9
arc length (days)8973
first opposition used1997
last opposition used2022
residual rms (arc-secs)0.82
perturbers coarse indicatorM-v
perturbers precise indicator003Ek
first observation date used1997-08-11.0
last observation date used2022-03-06.0
computer namePan
JD of orbit computation2457628.422384
perihelion JD uncertainty (days)1.4311E-04
argument of perihelion uncertainty (°)8.3405E-05
ascending node uncertainty (°)7.4078E-05
inclination uncertainty (°)3.5920E-06
eccentricity uncertainty 3.1317E-08
perihelion distance uncertainty (AU)8.1412E-08
Minimum Orbit Intersection Distances (in AU)
for orbit epoch: 2459200.5, reference: E2021-B25
Mercury1.70581
Venus1.32524
Earth1.05199
Mars0.62052
Jupiter2.59613
Saturn6.62101
Uranus15.5178
Neptune27.7603

Observations

141 total observations over interval: 1997 08 11.42877 – 2022 03 06.280573
These data are available for download (format description).

